Terminal Aerodrome Forecast
Issued by NWS New Orleans/Baton Rouge, LA

Home | Current Version | Previous Version | Text Only | Print | Product List | Glossary On
Versions: 1 2 3 4 5 6 7 8 9 10 11 12 13 14 15 16 17 18 19 20 21 22 23
000
FTUS44 KLIX 302300
TAFNEW
TAF
KNEW 302335Z 3100/3124 VRB03KT P6SM SCT200
     FM310500 06007KT P6SM SCT200
     FM311400 08011KT P6SM BKN150
     FM311800 10010KT P6SM SCT050 BKN150=

USA.gov is the U.S. government's official web portal to all federal, state and local government web resources and services.